Time,TemperatureF,DewpointF,PressureIn,WindDirection,WindDirectionDegrees,WindSpeedMPH,WindSpeedGustMPH,Humidity,HourlyPrecipIn,Conditions,Clouds,dailyrainin,SoftwareType,DateUTC
2013-01-20 00:02:00,5.0,-3.0,-100.00,NW,305,11.0,22.0,67,-99.99,,,-99.99,,2013-01-20 06:02:00,
2013-01-20 00:12:00,5.0,-3.0,-100.00,NW,305,11.0,22.0,67,-99.99,,,-99.99,,2013-01-20 06:12:00,
2013-01-20 00:22:00,5.0,-3.0,-100.00,NW,310,11.0,26.0,69,-99.99,,,-99.99,,2013-01-20 06:22:00,
2013-01-20 00:33:00,5.0,-3.0,-100.00,NW,310,11.0,26.0,69,-99.99,,,-99.99,,2013-01-20 06:33:00,
2013-01-20 00:43:00,5.0,-3.0,-100.00,NW,310,11.0,26.0,69,-99.99,,,-99.99,,2013-01-20 06:43:00,
2013-01-20 00:53:00,5.0,-3.0,-100.00,NW,310,11.0,26.0,69,-99.99,,,-99.99,,2013-01-20 06:53:00,
2013-01-20 01:02:00,4.0,-3.0,-100.00,NW,320,7.0,18.0,70,-99.99,,,-99.99,,2013-01-20 07:02:00,
2013-01-20 01:12:00,4.0,-3.0,-100.00,NW,320,7.0,18.0,70,-99.99,,,-99.99,,2013-01-20 07:12:00,
2013-01-20 01:22:00,4.0,-3.0,-100.00,NW,320,7.0,16.0,71,-99.99,,,-99.99,,2013-01-20 07:22:00,
2013-01-20 01:32:00,4.0,-3.0,-100.00,NW,310,7.0,17.0,71,-99.99,,,-99.99,,2013-01-20 07:32:00,
2013-01-20 01:42:00,4.0,-3.0,-100.00,NW,310,7.0,17.0,71,-99.99,,,-99.99,,2013-01-20 07:42:00,
2013-01-20 01:52:00,4.0,-3.0,-100.00,NW,310,7.0,17.0,71,-99.99,,,-99.99,,2013-01-20 07:52:00,
2013-01-20 02:02:00,4.0,-3.0,-100.00,NW,305,7.0,22.0,71,-99.99,,,-99.99,,2013-01-20 08:02:00,
2013-01-20 02:12:00,4.0,-3.0,-100.00,NW,305,7.0,22.0,71,-99.99,,,-99.99,,2013-01-20 08:12:00,
2013-01-20 02:22:00,4.0,-3.0,-100.00,NW,310,9.0,16.0,72,-99.99,,,-99.99,,2013-01-20 08:22:00,
2013-01-20 02:32:00,4.0,-3.0,-100.00,NW,310,9.0,16.0,72,-99.99,,,-99.99,,2013-01-20 08:32:00,
2013-01-20 02:42:00,4.0,-3.0,-100.00,NW,310,9.0,16.0,72,-99.99,,,-99.99,,2013-01-20 08:42:00,
2013-01-20 02:52:00,4.0,-3.0,-100.00,NW,310,9.0,16.0,72,-99.99,,,-99.99,,2013-01-20 08:52:00,
2013-01-20 03:02:00,3.0,-3.0,-100.00,NW,305,9.0,17.0,73,-99.99,,,-99.99,,2013-01-20 09:02:00,
2013-01-20 03:12:00,3.0,-3.0,-100.00,NW,305,9.0,17.0,73,-99.99,,,-99.99,,2013-01-20 09:12:00,
2013-01-20 03:22:00,3.0,-4.0,-100.00,WNW,295,9.0,16.0,73,-99.99,,,-99.99,,2013-01-20 09:22:00,
2013-01-20 03:33:00,3.0,-4.0,-100.00,WNW,295,9.0,16.0,73,-99.99,,,-99.99,,2013-01-20 09:33:00,
2013-01-20 03:42:00,3.0,-4.0,-100.00,WNW,295,9.0,16.0,73,-99.99,,,-99.99,,2013-01-20 09:42:00,
2013-01-20 03:53:00,3.0,-4.0,-100.00,WNW,295,7.0,16.0,74,-99.99,,,-99.99,,2013-01-20 09:53:00,
2013-01-20 04:02:00,3.0,-4.0,-100.00,WNW,295,7.0,16.0,74,-99.99,,,-99.99,,2013-01-20 10:02:00,
2013-01-20 04:12:00,3.0,-4.0,-100.00,WNW,295,7.0,16.0,74,-99.99,,,-99.99,,2013-01-20 10:12:00,
2013-01-20 04:22:00,2.0,-4.0,-100.00,NW,315,6.0,16.0,74,-99.99,,,-99.99,,2013-01-20 10:22:00,
2013-01-20 04:32:00,2.0,-4.0,-100.00,NW,315,6.0,16.0,74,-99.99,,,-99.99,,2013-01-20 10:32:00,
2013-01-20 04:42:00,2.0,-4.0,-100.00,NW,315,6.0,16.0,74,-99.99,,,-99.99,,2013-01-20 10:42:00,
2013-01-20 04:52:00,2.0,-4.0,-100.00,NW,315,6.0,16.0,74,-99.99,,,-99.99,,2013-01-20 10:52:00,
2013-01-20 05:02:00,2.0,-4.0,-100.00,WNW,300,9.0,18.0,75,-99.99,,,-99.99,,2013-01-20 11:02:00,
2013-01-20 05:12:00,2.0,-4.0,-100.00,WNW,300,9.0,18.0,75,-99.99,,,-99.99,,2013-01-20 11:12:00,
2013-01-20 05:22:00,2.0,-5.0,-100.00,NW,305,11.0,18.0,75,-99.99,,,-99.99,,2013-01-20 11:22:00,
2013-01-20 05:33:00,2.0,-5.0,-100.00,NW,305,11.0,18.0,75,-99.99,,,-99.99,,2013-01-20 11:33:00,
2013-01-20 05:43:00,2.0,-5.0,-100.00,NW,305,11.0,18.0,75,-99.99,,,-99.99,,2013-01-20 11:43:00,
2013-01-20 05:53:00,1.0,-5.0,-100.00,WNW,300,8.0,16.0,75,-99.99,,,-99.99,,2013-01-20 11:53:00,
2013-01-20 06:03:00,1.0,-5.0,-100.00,WNW,300,8.0,16.0,75,-99.99,,,-99.99,,2013-01-20 12:03:00,
2013-01-20 06:12:00,1.0,-5.0,-100.00,WNW,300,8.0,16.0,75,-99.99,,,-99.99,,2013-01-20 12:12:00,
2013-01-20 06:23:00,1.0,-5.0,-100.00,WNW,295,7.0,14.0,75,-99.99,,,-99.99,,2013-01-20 12:23:00,
2013-01-20 06:33:00,1.0,-5.0,-100.00,WNW,295,7.0,14.0,75,-99.99,,,-99.99,,2013-01-20 12:33:00,
2013-01-20 06:43:00,1.0,-5.0,-100.00,WNW,295,7.0,14.0,75,-99.99,,,-99.99,,2013-01-20 12:43:00,
2013-01-20 06:53:00,0.0,-6.0,-100.00,NW,315,6.0,17.0,75,-99.99,,,-99.99,,2013-01-20 12:53:00,
2013-01-20 07:02:00,0.0,-6.0,-100.00,NW,315,6.0,17.0,75,-99.99,,,-99.99,,2013-01-20 13:02:00,
2013-01-20 07:12:00,0.0,-6.0,-100.00,NW,315,6.0,17.0,75,-99.99,,,-99.99,,2013-01-20 13:12:00,
2013-01-20 07:23:00,0.0,-6.0,-100.00,NW,315,6.0,14.0,76,-99.99,,,-99.99,,2013-01-20 13:23:00,
2013-01-20 07:33:00,0.0,-6.0,-100.00,NW,315,6.0,14.0,76,-99.99,,,-99.99,,2013-01-20 13:33:00,
2013-01-20 07:43:00,0.0,-6.0,-100.00,NW,315,6.0,14.0,76,-99.99,,,-99.99,,2013-01-20 13:43:00,
2013-01-20 07:53:00,0.0,-6.0,-100.00,WNW,295,7.0,14.0,76,-99.99,,,-99.99,,2013-01-20 13:53:00,
2013-01-20 08:02:00,0.0,-6.0,-100.00,WNW,295,5.0,14.0,76,-99.99,,,-99.99,,2013-01-20 14:02:00,
2013-01-20 08:12:00,0.0,-6.0,-100.00,WNW,295,5.0,14.0,76,-99.99,,,-99.99,,2013-01-20 14:12:00,
2013-01-20 08:23:00,0.0,-6.0,-100.00,WNW,295,7.0,12.0,76,-99.99,,,-99.99,,2013-01-20 14:23:00,
2013-01-20 08:33:00,0.0,-6.0,-100.00,WNW,295,7.0,12.0,76,-99.99,,,-99.99,,2013-01-20 14:33:00,
2013-01-20 08:43:00,0.0,-6.0,-100.00,WNW,295,7.0,12.0,76,-99.99,,,-99.99,,2013-01-20 14:43:00,
2013-01-20 08:53:00,0.0,-6.0,-100.00,WNW,295,7.0,12.0,76,-99.99,,,-99.99,,2013-01-20 14:53:00,
2013-01-20 09:03:00,1.0,-5.0,-100.00,WNW,300,7.0,14.0,76,-99.99,,,-99.99,,2013-01-20 15:03:00,
2013-01-20 09:12:00,1.0,-5.0,-100.00,WNW,300,7.0,14.0,76,-99.99,,,-99.99,,2013-01-20 15:12:00,
2013-01-20 09:23:00,2.0,-5.0,-100.00,WNW,295,6.0,13.0,74,-99.99,,,-99.99,,2013-01-20 15:23:00,
2013-01-20 09:33:00,2.0,-5.0,-100.00,WNW,295,6.0,13.0,74,-99.99,,,-99.99,,2013-01-20 15:33:00,
2013-01-20 09:43:00,2.0,-5.0,-100.00,WNW,295,6.0,13.0,74,-99.99,,,-99.99,,2013-01-20 15:43:00,
2013-01-20 09:53:00,2.0,-5.0,-100.00,WNW,300,6.0,12.0,74,-99.99,,,-99.99,,2013-01-20 15:53:00,
2013-01-20 10:03:00,3.0,-4.0,-100.00,WNW,290,7.0,16.0,72,-99.99,,,-99.99,,2013-01-20 16:03:00,
2013-01-20 10:12:00,3.0,-4.0,-100.00,WNW,290,7.0,16.0,72,-99.99,,,-99.99,,2013-01-20 16:12:00,
2013-01-20 10:23:00,4.0,-4.0,-100.00,WNW,300,7.0,14.0,69,-99.99,,,-99.99,,2013-01-20 16:23:00,
2013-01-20 10:33:00,4.0,-4.0,-100.00,WNW,300,7.0,14.0,69,-99.99,,,-99.99,,2013-01-20 16:33:00,
2013-01-20 10:43:00,4.0,-4.0,-100.00,WNW,300,7.0,14.0,69,-99.99,,,-99.99,,2013-01-20 16:43:00,
2013-01-20 10:53:00,5.0,-3.0,-100.00,NW,315,7.0,13.0,67,-99.99,,,-99.99,,2013-01-20 16:53:00,
2013-01-20 11:03:00,5.0,-3.0,-100.00,NW,315,7.0,13.0,67,-99.99,,,-99.99,,2013-01-20 17:03:00,
2013-01-20 11:12:00,5.0,-3.0,-100.00,NW,315,7.0,13.0,67,-99.99,,,-99.99,,2013-01-20 17:12:00,
2013-01-20 11:22:00,7.0,-3.0,-100.00,NW,310,8.0,14.0,64,-99.99,,,-99.99,,2013-01-20 17:22:00,
2013-01-20 11:33:00,7.0,-3.0,-100.00,NW,310,8.0,14.0,64,-99.99,,,-99.99,,2013-01-20 17:33:00,
2013-01-20 11:43:00,7.0,-3.0,-100.00,NW,310,8.0,14.0,64,-99.99,,,-99.99,,2013-01-20 17:43:00,
2013-01-20 11:53:00,8.0,-3.0,-100.00,NW,325,6.0,14.0,62,-99.99,,,-99.99,,2013-01-20 17:53:00,
2013-01-20 12:03:00,8.0,-3.0,-100.00,NW,325,6.0,14.0,62,-99.99,,,-99.99,,2013-01-20 18:03:00,
2013-01-20 12:13:00,8.0,-3.0,-100.00,NW,325,6.0,14.0,62,-99.99,,,-99.99,,2013-01-20 18:13:00,
2013-01-20 12:23:00,9.0,-2.0,-100.00,West,260,6.0,12.0,60,-99.99,,,-99.99,,2013-01-20 18:23:00,
2013-01-20 12:33:00,9.0,-2.0,-100.00,West,260,6.0,12.0,60,-99.99,,,-99.99,,2013-01-20 18:33:00,
2013-01-20 12:43:00,9.0,-2.0,-100.00,West,260,6.0,12.0,60,-99.99,,,-99.99,,2013-01-20 18:43:00,
2013-01-20 12:53:00,9.0,-3.0,-100.00,NW,315,9.0,16.0,58,-99.99,,,-99.99,,2013-01-20 18:53:00,
2013-01-20 13:02:00,9.0,-3.0,-100.00,NW,315,9.0,16.0,58,-99.99,,,-99.99,,2013-01-20 19:02:00,
2013-01-20 13:12:00,9.0,-3.0,-100.00,NW,315,9.0,16.0,58,-99.99,,,-99.99,,2013-01-20 19:12:00,
2013-01-20 13:22:00,8.0,-4.0,-100.00,NW,320,9.0,15.0,57,-99.99,,,-99.99,,2013-01-20 19:22:00,
2013-01-20 13:33:00,8.0,-4.0,-100.00,NW,320,9.0,15.0,57,-99.99,,,-99.99,,2013-01-20 19:33:00,
2013-01-20 13:43:00,8.0,-4.0,-100.00,NW,320,9.0,15.0,57,-99.99,,,-99.99,,2013-01-20 19:43:00,
2013-01-20 13:53:00,9.0,-4.0,-100.00,North,-999,-999.0,-999.0,54,-99.99,,,-99.99,,2013-01-20 19:53:00,
2013-01-20 14:03:00,9.0,-4.0,-100.00,North,-999,-999.0,-999.0,54,-99.99,,,-99.99,,2013-01-20 20:03:00,
2013-01-20 14:12:00,9.0,-4.0,-100.00,North,-999,-999.0,-999.0,54,-99.99,,,-99.99,,2013-01-20 20:12:00,
2013-01-20 14:23:00,9.0,-5.0,-100.00,NW,305,11.0,18.0,53,-99.99,,,-99.99,,2013-01-20 20:23:00,
2013-01-20 14:33:00,9.0,-5.0,-100.00,NW,305,11.0,18.0,53,-99.99,,,-99.99,,2013-01-20 20:33:00,
2013-01-20 14:42:00,9.0,-5.0,-100.00,NW,305,11.0,18.0,53,-99.99,,,-99.99,,2013-01-20 20:42:00,
2013-01-20 14:53:00,10.0,-4.0,-100.00,West,270,7.0,17.0,53,-99.99,,,-99.99,,2013-01-20 20:53:00,
2013-01-20 15:03:00,10.0,-4.0,-100.00,West,270,7.0,17.0,53,-99.99,,,-99.99,,2013-01-20 21:03:00,
2013-01-20 15:13:00,10.0,-4.0,-100.00,West,270,7.0,17.0,53,-99.99,,,-99.99,,2013-01-20 21:13:00,
2013-01-20 15:23:00,10.0,-5.0,-100.00,WNW,295,10.0,16.0,51,-99.99,,,-99.99,,2013-01-20 21:23:00,
2013-01-20 15:33:00,10.0,-5.0,-100.00,WNW,295,10.0,16.0,51,-99.99,,,-99.99,,2013-01-20 21:33:00,
2013-01-20 15:43:00,10.0,-5.0,-100.00,WNW,295,10.0,16.0,51,-99.99,,,-99.99,,2013-01-20 21:43:00,
2013-01-20 15:53:00,8.0,-6.0,-100.00,NW,315,8.0,14.0,52,-99.99,,,-99.99,,2013-01-20 21:53:00,
2013-01-20 16:03:00,8.0,-6.0,-100.00,NW,315,8.0,14.0,52,-99.99,,,-99.99,,2013-01-20 22:03:00,
2013-01-20 16:13:00,8.0,-6.0,-100.00,NW,315,8.0,14.0,52,-99.99,,,-99.99,,2013-01-20 22:13:00,
2013-01-20 16:23:00,8.0,-5.0,-100.00,NW,320,8.0,14.0,55,-99.99,,,-99.99,,2013-01-20 22:23:00,
2013-01-20 16:33:00,8.0,-5.0,-100.00,NW,320,8.0,14.0,55,-99.99,,,-99.99,,2013-01-20 22:33:00,
2013-01-20 16:43:00,8.0,-5.0,-100.00,NW,320,8.0,14.0,55,-99.99,,,-99.99,,2013-01-20 22:43:00,
2013-01-20 16:53:00,7.0,-5.0,-100.00,WNW,285,3.0,11.0,56,-99.99,,,-99.99,,2013-01-20 22:53:00,
2013-01-20 17:03:00,7.0,-5.0,-100.00,WNW,285,3.0,11.0,56,-99.99,,,-99.99,,2013-01-20 23:03:00,
2013-01-20 17:13:00,7.0,-5.0,-100.00,WNW,285,3.0,11.0,56,-99.99,,,-99.99,,2013-01-20 23:13:00,
2013-01-20 17:23:00,6.0,-5.0,-100.00,NW,315,4.0,7.0,58,-99.99,,,-99.99,,2013-01-20 23:23:00,
2013-01-20 17:33:00,6.0,-5.0,-100.00,NW,315,4.0,7.0,58,-99.99,,,-99.99,,2013-01-20 23:33:00,
2013-01-20 17:43:00,6.0,-5.0,-100.00,NW,315,4.0,7.0,58,-99.99,,,-99.99,,2013-01-20 23:43:00,
2013-01-20 17:53:00,6.0,-5.0,-100.00,WNW,300,4.0,10.0,59,-99.99,,,-99.99,,2013-01-20 23:53:00,
2013-01-20 18:03:00,6.0,-5.0,-100.00,WNW,300,4.0,10.0,59,-99.99,,,-99.99,,2013-01-21 00:03:00,
2013-01-20 18:13:00,6.0,-5.0,-100.00,WNW,300,4.0,10.0,59,-99.99,,,-99.99,,2013-01-21 00:13:00,
2013-01-20 18:23:00,6.0,-4.0,-100.00,NW,310,4.0,10.0,61,-99.99,,,-99.99,,2013-01-21 00:23:00,
2013-01-20 18:33:00,6.0,-4.0,-100.00,NW,310,4.0,10.0,61,-99.99,,,-99.99,,2013-01-21 00:33:00,
2013-01-20 18:43:00,6.0,-4.0,-100.00,NW,310,4.0,10.0,61,-99.99,,,-99.99,,2013-01-21 00:43:00,
2013-01-20 18:53:00,7.0,-4.0,-100.00,NW,310,6.0,11.0,62,-99.99,,,-99.99,,2013-01-21 00:53:00,
2013-01-20 19:03:00,7.0,-4.0,-100.00,NW,310,6.0,11.0,62,-99.99,,,-99.99,,2013-01-21 01:03:00,
2013-01-20 19:13:00,7.0,-4.0,-100.00,NW,310,6.0,11.0,62,-99.99,,,-99.99,,2013-01-21 01:13:00,
2013-01-20 19:23:00,7.0,-3.0,-100.00,NW,325,6.0,12.0,63,-99.99,,,-99.99,,2013-01-21 01:23:00,
2013-01-20 19:33:00,7.0,-3.0,-100.00,NW,325,6.0,12.0,63,-99.99,,,-99.99,,2013-01-21 01:33:00,
2013-01-20 19:43:00,7.0,-3.0,-100.00,NW,325,6.0,12.0,63,-99.99,,,-99.99,,2013-01-21 01:43:00,
2013-01-20 19:53:00,6.0,-3.0,-100.00,WNW,290,7.0,16.0,65,-99.99,,,-99.99,,2013-01-21 01:53:00,
2013-01-20 20:03:00,6.0,-3.0,-100.00,WNW,290,7.0,16.0,65,-99.99,,,-99.99,,2013-01-21 02:03:00,
2013-01-20 20:12:00,6.0,-3.0,-100.00,WNW,290,7.0,16.0,65,-99.99,,,-99.99,,2013-01-21 02:12:00,
2013-01-20 20:23:00,6.0,-3.0,-100.00,WNW,295,6.0,21.0,66,-99.99,,,-99.99,,2013-01-21 02:23:00,
2013-01-20 20:33:00,6.0,-3.0,-100.00,WNW,295,6.0,21.0,66,-99.99,,,-99.99,,2013-01-21 02:33:00,
2013-01-20 20:43:00,6.0,-3.0,-100.00,WNW,295,6.0,21.0,66,-99.99,,,-99.99,,2013-01-21 02:43:00,
2013-01-20 20:53:00,5.0,-4.0,-100.00,NW,305,6.0,16.0,66,-99.99,,,-99.99,,2013-01-21 02:53:00,
2013-01-20 21:03:00,5.0,-4.0,-100.00,NW,305,6.0,16.0,66,-99.99,,,-99.99,,2013-01-21 03:03:00,
2013-01-20 21:13:00,5.0,-4.0,-100.00,NW,305,6.0,16.0,66,-99.99,,,-99.99,,2013-01-21 03:13:00,
2013-01-20 21:23:00,4.0,-4.0,-100.00,WNW,300,6.0,10.0,68,-99.99,,,-99.99,,2013-01-21 03:23:00,
2013-01-20 21:33:00,4.0,-4.0,-100.00,WNW,300,6.0,10.0,68,-99.99,,,-99.99,,2013-01-21 03:33:00,
2013-01-20 21:43:00,4.0,-4.0,-100.00,WNW,300,6.0,10.0,68,-99.99,,,-99.99,,2013-01-21 03:43:00,
2013-01-20 21:53:00,4.0,-3.0,-100.00,WNW,295,7.0,9.0,72,-99.99,,,-99.99,,2013-01-21 03:53:00,
2013-01-20 22:03:00,4.0,-3.0,-100.00,WNW,295,7.0,9.0,72,-99.99,,,-99.99,,2013-01-21 04:03:00,
2013-01-20 22:12:00,4.0,-3.0,-100.00,WNW,295,7.0,9.0,72,-99.99,,,-99.99,,2013-01-21 04:12:00,
2013-01-20 22:23:00,4.0,-2.0,-100.00,WNW,285,4.0,10.0,74,-99.99,,,-99.99,,2013-01-21 04:23:00,
2013-01-20 22:32:00,4.0,-2.0,-100.00,WNW,285,4.0,10.0,74,-99.99,,,-99.99,,2013-01-21 04:32:00,
2013-01-20 22:43:00,4.0,-2.0,-100.00,WNW,285,4.0,10.0,74,-99.99,,,-99.99,,2013-01-21 04:43:00,
2013-01-20 22:53:00,4.0,-2.0,-100.00,WNW,290,4.0,8.0,76,-99.99,,,-99.99,,2013-01-21 04:53:00,
2013-01-20 23:03:00,4.0,-2.0,-100.00,WNW,290,4.0,8.0,76,-99.99,,,-99.99,,2013-01-21 05:03:00,
2013-01-20 23:12:00,4.0,-2.0,-100.00,WNW,290,4.0,8.0,76,-99.99,,,-99.99,,2013-01-21 05:12:00,
2013-01-20 23:22:00,4.0,-2.0,-100.00,WNW,300,4.0,12.0,77,-99.99,,,-99.99,,2013-01-21 05:22:00,
2013-01-20 23:33:00,4.0,-2.0,-100.00,WNW,300,4.0,12.0,77,-99.99,,,-99.99,,2013-01-21 05:33:00,
2013-01-20 23:42:00,4.0,-2.0,-100.00,WNW,300,4.0,12.0,77,-99.99,,,-99.99,,2013-01-21 05:42:00,
2013-01-20 23:53:00,3.0,-3.0,-100.00,NW,315,8.0,18.0,76,-99.99,,,-99.99,,2013-01-21 05:53:00,